Weather History for Newcastle Airport, United Kingdom

Change the Weather History Date:

Saturday, April 6, 2013

  Actual Average Record
Temperature  
Mean Temperature 39 °F -  
Max Temperature 50 °F 52 °F 68 °F (2011)
Min Temperature 28 °F 38 °F 24 °F (2008)
Degree Days  
Heating Degree Days 26    
Moisture  
Dew Point 29 °F    
Average Humidity 65    
Maximum Humidity 93    
Minimum Humidity 40    
Precipitation  
Precipitation 0.00 in - - ()
Sea Level Pressure  
Sea Level Pressure 30.23 in    
Wind  
Wind Speed 4 mph ()    
Max Wind Speed 7 mph    
Max Gust Speed -    
Visibility 6.2 miles    
Events      
Averages and records for this station are not official NWS values.
T = Trace of Precipitation, MM = Missing Value Source: Averaged Metar Reports

Daily Weather History Graph

Daily Weather History Graph

Search for Another Location

Airport:

Trip Planner

Search our weather history database for the weather conditions in past years. The results will help you decide how hot, cold, wet, or windy it might be!

Date:

Astronomy

Apr. 06, 2013 Rise Set
Actual Time 6:25 AM BST 7:53 PM BST
Civil Twilight 5:48 AM BST 8:31 PM BST
Nautical Twilight 5:01 AM BST 9:18 PM BST
Astronomical Twilight 4:09 AM BST 10:10 PM BST
Moon 4:38 AM BST (4/6) 3:32 PM BST (4/6)
Length of Visible Light 14h 43m
Length of Day
13h 28m
Waning Crescent, 17% of the Moon is Illuminated
Apr 6
Waning Crescent
Apr 10
New
Apr 18
First Quarter
Apr 25
Full
May 2
Last Quarter

Hourly Weather History & Observations

Time (BST) Temp. Windchill Dew Point Humidity Pressure Visibility Wind Dir Wind Speed Gust Speed Precip Events Conditions
12:20 AM 37.4 °F 32.1 °F 28.4 °F 70% 30.24 in 6.2 mi NNE 6.9 mph - N/A   Mostly Cloudy
1:20 AM 35.6 °F 31.7 °F 28.4 °F 75% 30.24 in 6.2 mi North 4.6 mph - N/A   Scattered Clouds
1:50 AM 33.8 °F 29.6 °F 26.6 °F 75% 30.24 in 6.2 mi NW 4.6 mph - N/A   Scattered Clouds
2:50 AM 30.2 °F 25.4 °F 26.6 °F 86% 30.24 in 6.2 mi NW 4.6 mph - N/A   Scattered Clouds
3:50 AM 32.0 °F 27.5 °F 28.4 °F 87% 30.24 in 6.2 mi WNW 4.6 mph - N/A   Mostly Cloudy
4:50 AM 30.2 °F 23.4 °F 28.4 °F 93% 30.24 in 6.2 mi WNW 6.9 mph - N/A   Mostly Cloudy
5:20 AM 30.2 °F 25.4 °F 26.6 °F 86% 30.24 in 6.2 mi WNW 4.6 mph - N/A   Partly Cloudy
5:50 AM 28.4 °F 23.3 °F 26.6 °F 93% 30.24 in 6.2 mi WSW 4.6 mph - N/A   Partly Cloudy
6:20 AM 28.4 °F 24.6 °F 24.8 °F 86% 30.24 in 6.2 mi WSW 3.5 mph - N/A   Partly Cloudy
6:50 AM 28.4 °F 24.6 °F 24.8 °F 86% 30.27 in 6.2 mi SW 3.5 mph - N/A   Partly Cloudy
7:20 AM 30.2 °F 26.7 °F 26.6 °F 86% 30.27 in 6.2 mi SW 3.5 mph - N/A   Partly Cloudy
7:50 AM 32.0 °F - 28.4 °F 87% 30.27 in 6.2 mi Variable 2.3 mph - N/A   Partly Cloudy
8:20 AM 35.6 °F 32.8 °F 30.2 °F 81% 30.27 in - SW 3.5 mph - N/A   Clear
8:50 AM 39.2 °F 35.9 °F 33.8 °F 81% 30.27 in - WSW 4.6 mph - N/A   Clear
9:20 AM 41.0 °F 37.1 °F 33.8 °F 76% 30.27 in - West 5.8 mph - N/A   Clear
9:50 AM 42.8 °F 40.1 °F 32.0 °F 66% 30.27 in - WSW 4.6 mph - N/A   Clear
10:20 AM 42.8 °F 40.1 °F 30.2 °F 61% 30.27 in - West 4.6 mph - N/A   Clear
10:50 AM 46.4 °F 44.3 °F 30.2 °F 53% 30.27 in 6.2 mi West 4.6 mph - N/A   Partly Cloudy
11:20 AM 46.4 °F 44.3 °F 28.4 °F 50% 30.27 in 6.2 mi WSW 4.6 mph - N/A   Partly Cloudy
11:50 AM 48.2 °F - 26.6 °F 43% 30.27 in 6.2 mi WNW 5.8 mph - N/A   Partly Cloudy
12:20 PM 46.4 °F 43.5 °F 26.6 °F 46% 30.27 in 6.2 mi West 5.8 mph - N/A   Partly Cloudy
12:50 PM 48.2 °F - 26.6 °F 43% 30.24 in 6.2 mi West 5.8 mph - N/A   Partly Cloudy
1:20 PM 50.0 °F - 28.4 °F 43% 30.24 in 6.2 mi Variable 2.3 mph - N/A   Partly Cloudy
1:50 PM 48.2 °F - 26.6 °F 43% 30.24 in 6.2 mi WSW 5.8 mph - N/A   Partly Cloudy
2:20 PM 50.0 °F - 26.6 °F 40% 30.24 in 6.2 mi West 4.6 mph - N/A   Partly Cloudy
2:50 PM 48.2 °F - 28.4 °F 46% 30.24 in 6.2 mi Variable 2.3 mph - N/A   Partly Cloudy
3:20 PM 50.0 °F - 26.6 °F 40% 30.21 in 6.2 mi West 4.6 mph - N/A   Scattered Clouds
3:50 PM 50.0 °F - 28.4 °F 43% 30.21 in 6.2 mi West 5.8 mph - N/A   Scattered Clouds
4:20 PM 48.2 °F - 28.4 °F 46% 30.21 in 6.2 mi Variable 2.3 mph - N/A   Scattered Clouds
4:50 PM 46.4 °F 43.5 °F 28.4 °F 50% 30.21 in 6.2 mi NNW 5.8 mph - N/A   Scattered Clouds
5:20 PM 48.2 °F - 28.4 °F 46% 30.21 in 6.2 mi Variable 3.5 mph - N/A   Scattered Clouds
5:50 PM 46.4 °F 44.3 °F 30.2 °F 53% 30.21 in 6.2 mi ENE 4.6 mph - N/A   Scattered Clouds
6:20 PM 46.4 °F 42.9 °F 30.2 °F 53% 30.18 in 6.2 mi East 6.9 mph - N/A   Scattered Clouds
6:50 PM 44.6 °F 41.4 °F 30.2 °F 57% 30.18 in 6.2 mi SE 5.8 mph - N/A   Scattered Clouds
7:20 PM 42.8 °F - 32.0 °F 66% 30.21 in 6.2 mi Variable 2.3 mph - N/A   Scattered Clouds
7:50 PM 41.0 °F 39.0 °F 32.0 °F 70% 30.21 in 6.2 mi Variable 3.5 mph - N/A   Partly Cloudy
8:20 PM 41.0 °F 38.0 °F 30.2 °F 65% 30.21 in 6.2 mi SSE 4.6 mph - N/A   Partly Cloudy
8:50 PM 37.4 °F - 28.4 °F 70% 30.21 in 6.2 mi Calm Calm - N/A   Partly Cloudy
9:20 PM 37.4 °F - 28.4 °F 70% 30.21 in 6.2 mi Calm Calm - N/A   Partly Cloudy
9:50 PM 37.4 °F 34.9 °F 28.4 °F 70% 30.21 in - SW 3.5 mph - N/A   Clear
10:20 PM 35.6 °F 30.7 °F 28.4 °F 75% 30.21 in - WSW 5.8 mph - N/A   Clear
10:50 PM 35.6 °F - 28.4 °F 75% 30.21 in - WSW 2.3 mph - N/A   Clear
11:20 PM 35.6 °F 32.8 °F 28.4 °F 75% 30.21 in - SSW 3.5 mph - N/A   Clear
11:50 PM 35.6 °F 31.7 °F 28.4 °F 75% 30.21 in - West 4.6 mph - N/A   Clear